Regional Weather Roundup
Issued by NWS

Home | Current Version | Previous Version | Graphics & Text | Print | Product List | Glossary On
Versions: 1 2 3 4 5 6 7 8 9 10 11 12 13 14 15 16 17 18 19 20 21 22 23 24 25 26 27 28 29 30 31 32 33 34 35 36 37 38 39 40 41 42 43 44 45 46 47 48 49 50
179
ASUS45 KCYS 292010
RWRWY

WYOMING REGIONAL WEATHER ROUNDUP
NATIONAL WEATHER SERVICE CHEYENNE WY
200 PM MDT WED MAR 29 2017

NOTE:  "FAIR" INDICATES FEW OR NO CLOUDS BELOW 12,000 FEET
WITH NO SIGNIFICANT WEATHER AND/OR OBSTRUCTIONS TO VISIBILITY.

WYZ001-292100-
YELLOWSTONE NATIONAL PARK

CITY           SKY/WX    TMP DP  RH WIND       PRES   REMARKS
LK YELLOWSTONE   N/A     35  25  66 VRB3      30.14F
W YELLOWSTONE  NOT AVBL

$$
WYZ002>013-054>058-071-098>099-292100-
NORTHERN WYOMING

CITY           SKY/WX    TMP DP  RH WIND       PRES   REMARKS
JACKSON        PTSUNNY   46  23  39 S14         N/A
CODY           FAIR      56  24  29 SW10      30.00F
GREYBULL       FAIR      56  27  32 SE7       30.01F
WORLAND        FAIR      56  32  40 MISG      30.01F
SHERIDAN       FAIR      57  29  34 NE7       29.99F
BUFFALO        FAIR      56  23  27 SE8       30.00F
GILLETTE       FAIR      57  25  29 E5        30.00F
HULETT         FAIR      55  32  41 SW5       30.03F
NEWCASTLE      FAIR      54  30  40 W7G16     30.03F

$$
WYZ014>020-022>026-101>103-292100-
CENTRAL WYOMING

CITY           SKY/WX    TMP DP  RH WIND       PRES   REMARKS
BIG PINEY      PTSUNNY   47  24  40 VRB3      30.15F
PINEDALE       MOCLDY    45  23  42 NW9G18    30.15F
DUBOIS         FAIR      50  19  29 W12G23    30.06F
LANDER         FAIR      54  28  36 SE7       30.03F
RIVERTON       FAIR      53  28  38 S7        30.05F
CASPER         FAIR      54  27  35 W10G16    30.03F
DOUGLAS        FAIR      58  28  32 NW14G23   30.03F

$$
WYZ021-027>030-104>119-292100-
SOUTHERN WYOMING

CITY           SKY/WX    TMP DP  RH WIND       PRES   REMARKS
EVANSTON       FAIR      46  25  43 SW10      30.18F
KEMMERER         N/A     41  28  60 NW12G20   30.18S
FORT BRIDGER   FAIR      51  26  37 W14       30.19F
ROCK SPRINGS   FAIR      45  27  49 W16       30.14F
DIXON            N/A     49  26  39 W10G20    30.16F
RAWLINS        FAIR      49  24  37 W14G25    30.10F
SARATOGA       FAIR      45  27  49 W13G21    30.12F
LARAMIE        FAIR      46  24  42 NW12G24   30.05F
CHEYENNE       PTSUNNY   49  27  42 N18G26    30.03F
TORRINGTON     PTSUNNY   57  33  40 N13G20    30.00F
PINE BLUFFS    MOCLDY    50  34  53 N13G21    30.02F

$$




USA.gov is the U.S. government's official web portal to all federal, state and local government web resources and services.